Location: Asheville, NC
(35.6000°N, 82.5500°W)
Time: 03:28:29
(UTC-04:00)

Hubble Space Telescope - Pass Details

Date: 07 January 2018
Orbit: 537 x 541 km, 28.5° (Epoch: 24 June)

Event Time Altitude Azimuth Distance (km) Brightness Sun altitude
Exits shadow 06:13:47 19° 230° (SW) 1,307 2.4 -17.2°
Maximum altitude 06:15:52 30° 183° (S) 983 2.2 -16.8°
Drops below altitude 10° 06:19:29 10° 122° (ESE) 1,781 4.6 -16.1°
Sets 06:21:56 0° 111° (ESE) 2,670 6.2 -15.6°
